Terminal Aerodrome Forecast
Issued by NWS Dallas/Fort Worth, TX

Home | Current Version | Previous Version | Text Only | Print | Product List | Glossary On
Versions: 1 2 3 4 5 6 7 8 9 10 11 12 13 14 15 16 17 18 19 20 21 22 23 24 25
000
FTUS44 KFWD 311100
TAFDFW
TAF
KDFW 311138Z 3112/0118 34012KT P6SM SKC
     FM311400 36016G26KT P6SM FEW035
     FM010000 02008KT P6SM SKC=

USA.gov is the U.S. government's official web portal to all federal, state and local government web resources and services.